Lubbock, TX

3:00 AM CDT on July 22, 2017 (GMT -0500)
Lubbock International

Weather History for KLBB - April, 2013

Change the Weather History Date:

Thursday, April 18, 2013

  Actual Average Record
Temperature  
Mean Temperature 43 °F 61 °F  
Max Temperature 55 °F 76 °F 96 °F (1987)
Min Temperature 31 °F 47 °F 29 °F (1944)
Degree Days  
Heating Degree Days 22 5  
Month to date heating degree days 152 134  
Since 1 July heating degree days 3038 3288  
Cooling Degree Days 0 2  
Month to date cooling degree days 23 21  
Year to date cooling degree days 25 28  
Moisture  
Dew Point 22 °F    
Average Humidity 48    
Maximum Humidity 76    
Minimum Humidity 20    
Precipitation  
Precipitation 0.00 in 0.04 in 0.84 in (1949)
Month to date precipitation 0.04 0.76  
Year to date precipitation 2.27 3.26  
Snow  
Snow 0.00 in 0.00 in T in (1949)
Month to date snowfall 0.4 0.2  
Since 1 July snowfall 4.1 8.2  
Snow Depth 0.00 in    
Sea Level Pressure  
Sea Level Pressure 29.98 in    
Wind  
Wind Speed 17 mph (North)    
Max Wind Speed 33 mph    
Max Gust Speed 43 mph    
Visibility 10 miles    
Events      
T = Trace of Precipitation, MM = Missing Value Source: NWS Daily Summary

Daily Weather History Graph

Daily Weather History Graph

Search for Another Location

Airport or City:

Trip Planner

Search our weather history database for the weather conditions in past years. The results will help you decide how hot, cold, wet, or windy it might be!

Date:

Astronomy

Apr. 18, 2013 Rise Set
Actual Time 7:12 AM CDT 8:20 PM CDT
Civil Twilight 6:46 AM CDT 8:46 PM CDT
Nautical Twilight 6:16 AM CDT 9:17 PM CDT
Astronomical Twilight 5:44 AM CDT 9:49 PM CDT
Moon 1:29 PM CDT (4/18) 2:33 AM CDT (4/18)
Length of Visible Light 13h 59m
Length of Day
13h 08m
First Quarter, 52% of the Moon is Illuminated
Apr 18
First Quarter
Apr 25
Full
May 2
Last Quarter
May 9
New
May 17
First Quarter

Hourly Weather History & Observations

Time (CDT) Temp. Windchill Dew Point Humidity Pressure Visibility Wind Dir Wind Speed Gust Speed Precip Events Conditions
12:19 AM 41.0 °F 30.9 °F 33.8 °F 76% 29.83 in 9.0 mi North 24.2 mph 38.0 mph N/A   Mostly Cloudy
12:53 AM 39.9 °F 27.8 °F 32.0 °F 73% 29.75 in 9.0 mi North 33.4 mph - N/A   Mostly Cloudy
1:45 AM 39.2 °F 28.7 °F 30.2 °F 70% 29.89 in 10.0 mi North 23.0 mph 32.2 mph N/A   Scattered Clouds
1:53 AM 39.0 °F 28.3 °F 30.9 °F 73% 29.79 in 10.0 mi North 24.2 mph 35.7 mph N/A   Scattered Clouds
2:00 AM 39.2 °F 29.3 °F 30.2 °F 70% 29.90 in 10.0 mi North 20.7 mph 35.7 mph N/A   Mostly Cloudy
2:53 AM 37.9 °F 26.8 °F 28.9 °F 70% 29.81 in 10.0 mi North 24.2 mph 39.1 mph N/A   Overcast
3:53 AM 37.9 °F 28.2 °F 27.0 °F 65% 29.81 in 10.0 mi North 18.4 mph 33.4 mph N/A   Overcast
4:53 AM 36.0 °F 23.9 °F 26.1 °F 67% 29.82 in 10.0 mi NNE 25.3 mph 33.4 mph N/A   Mostly Cloudy
5:07 AM 35.6 °F 24.0 °F 24.8 °F 65% 29.96 in 10.0 mi North 23.0 mph 33.4 mph N/A   Scattered Clouds
5:27 AM 35.6 °F 23.0 °F 24.8 °F 65% 29.94 in 10.0 mi North 27.6 mph 31.1 mph N/A   Mostly Cloudy
5:53 AM 34.0 °F 22.1 °F 24.1 °F 67% 29.87 in - NNE 21.9 mph 38.0 mph N/A   Mostly Cloudy
6:04 AM 33.8 °F 20.8 °F 24.8 °F 70% 29.96 in 10.0 mi North 26.5 mph 33.4 mph N/A   Scattered Clouds
6:53 AM 32.0 °F 19.2 °F 23.0 °F 69% 29.94 in 10.0 mi North 23.0 mph 29.9 mph N/A   Partly Cloudy
7:53 AM 30.9 °F 17.8 °F 21.0 °F 67% 29.98 in 10.0 mi North 23.0 mph 29.9 mph N/A   Partly Cloudy
8:53 AM 33.8 °F 22.8 °F 21.2 °F 60% 30.05 in 10.0 mi NE 18.4 mph - N/A   Clear
9:53 AM 37.0 °F - 19.9 °F 50% 30.02 in 10.0 mi North - - N/A   Clear
10:53 AM 39.9 °F 30.5 °F 19.9 °F 45% 30.04 in 10.0 mi North 19.6 mph 34.5 mph N/A   Partly Cloudy
11:53 AM 45.0 °F 37.4 °F 19.9 °F 37% 30.04 in 10.0 mi North 18.4 mph 31.1 mph N/A   Clear
12:53 PM 48.0 °F - 19.0 °F 32% 30.04 in 10.0 mi North 18.4 mph 25.3 mph N/A   Clear
1:53 PM 50.0 °F - 18.0 °F 28% 30.03 in 10.0 mi North 13.8 mph 27.6 mph N/A   Partly Cloudy
2:53 PM 52.0 °F - 17.1 °F 25% 30.02 in 10.0 mi NNW 17.3 mph 29.9 mph N/A   Partly Cloudy
3:53 PM 53.1 °F - 16.0 °F 23% 30.02 in 10.0 mi North 17.3 mph 39.1 mph N/A   Partly Cloudy
4:53 PM 52.0 °F - 16.0 °F 24% 30.02 in 10.0 mi North 18.4 mph 27.6 mph N/A   Partly Cloudy
5:53 PM 53.1 °F - 14.0 °F 21% 30.03 in 10.0 mi North 12.7 mph 24.2 mph N/A   Partly Cloudy
6:53 PM 51.1 °F - 14.0 °F 23% 30.06 in 10.0 mi North 18.4 mph 27.6 mph N/A   Partly Cloudy
7:53 PM 48.0 °F - 14.0 °F 26% 30.09 in 10.0 mi North 13.8 mph - N/A   Partly Cloudy
8:53 PM 44.1 °F 39.0 °F 15.1 °F 31% 30.13 in 10.0 mi NNE 9.2 mph - N/A   Partly Cloudy
9:53 PM 39.9 °F 34.5 °F 14.0 °F 35% 30.17 in 10.0 mi NE 8.1 mph - N/A   Partly Cloudy
10:53 PM 37.0 °F 31.0 °F 14.0 °F 39% 30.19 in 10.0 mi NE 8.1 mph - N/A   Clear
11:53 PM 34.0 °F 26.6 °F 12.9 °F 42% 30.19 in 10.0 mi NNE 9.2 mph - N/A   Partly Cloudy